Regional Weather Roundup
Issued by NWS

Home | Current Version | Previous Version | Graphics & Text | Print | Product List | Glossary On
Versions: 1 2 3 4 5 6 7 8 9 10 11 12 13 14 15 16 17 18 19 20 21 22 23 24 25 26 27 28 29 30 31 32 33 34 35 36 37 38 39 40 41 42 43 44 45 46 47 48 49 50
000
ASUS43 KFSD 050910
RWRSD

WEATHER ROUNDUP FOR SOUTH DAKOTA
NATIONAL WEATHER SERVICE SIOUX FALLS SD
400 AM CDT TUE MAY 05 2015

NOTE: "FAIR" INDICATES FEW OR NO CLOUDS BELOW 12,000 FEET WITH NO
SIGNIFICANT WEATHER AND/OR OBSTRUCTIONS TO VISIBILITY.


SDZ001>005-009-010-012>017-051000-
NORTHWEST AND NORTH CENTRAL SOUTH DAKOTA

CITY           SKY/WX    TMP DP  RH WIND       PRES   REMARKS
BUFFALO          N/A     42  28  57 SE6       29.94F
FAITH            N/A     47  27  45 SE13      30.03F
MOBRIDGE       CLEAR     54  28  36 SE12      30.05F
$$

SDZ012>016-024>037-041>051-057-063-072>074-051000-
SOUTHWEST AND SOUTH CENTRAL SOUTH DAKOTA

CITY           SKY/WX    TMP DP  RH WIND       PRES   REMARKS
RAPID CTY ARPT CLEAR     43  34  70 S13       30.03F
PIERRE         MOCLDY    50  32  50 SE7       30.08R
CUSTER         CLEAR     36  28  73 NW3       30.07F
ELLSWORTH AFB  PTCLDY    45  34  65 S13       30.02F
PHILIP         CLEAR     41  25  53 CALM      30.06F
PINE RIDGE     PTCLDY    46  36  68 S7        30.05F
SPEARFISH      FAIR      39  34  81 CALM      29.99S
WINNER         FAIR      46  35  65 SE7       30.09S
$$

SDZ004>011-016>023-039-040-051000-
NORTHEAST SOUTH DAKOTA

CITY           SKY/WX    TMP DP  RH WIND       PRES   REMARKS
ABERDEEN       MOCLDY    52  32  46 E8        30.12F
WATERTOWN      PTCLDY    55  27  34 E8G17     30.15S
BROOKINGS      PTCLDY    52  30  43 E9        30.15F
SISSETON         N/A     43  35  73 S3        30.16F
$$

SDZ017-020-022-023-036>040-048>070-051000-
SOUTHEAST SOUTH DAKOTA

CITY           SKY/WX    TMP DP  RH WIND       PRES   REMARKS
SIOUX FALLS    PTCLDY    45  33  63 NE3       30.12S
HURON          CLEAR     47  31  53 SE7       30.12S
CHAMBERLAIN    PTCLDY    47  38  71 CALM      30.09F
MITCHELL       PTCLDY    46  34  62 CALM      30.12S
YANKTON        CLOUDY    54  45  71 NE5       30.09S
$$

ABBREVIATIONS USED IN REMARKS
   TC - TEMPERATURE IN CELSIUS
  WCI - WIND CHILL INDEX
   HX - HEAT INDEX
  VSB - VISIBILITY




USA.gov is the U.S. government's official web portal to all federal, state and local government web resources and services.